DLH600 EDDF-OIIE

Flight info

Callsign DLH600
Flight time N/A
Altitude 31000
Route CINDY8S/18 CINDY Z74 HAREM DCT ASLEP DCT TAKUT L603 BESNI/N0472F370 L605 MIQ DCT ALUTU DCT BIBAG L605 ESEGA DCT SASAL DCT INVED DCT ARTAT/N0476F390 UP975 ERGUN UL124 BONAM L319 OTENA L124 ZAJ R661 MIVAK MIVAK2X
Aircraft A346/H-SDE2E3GHIJ1J3J4J5LM1ORWXYZ/C

Departure

Time 2026-05-05 09:03
Airport Frankfurt Main Airport (EDDF)

Arrival

Time N/A
Airport Imam Khomeini International Airport (OIIE)
Time Latitude Longitude Altitude Speed Heading
2026-05-05 08:39 50.04756 8.56388 364 ft 0 kts 340°
2026-05-05 08:48 50.04747 8.56393 370 ft 0 kts 340°
2026-05-05 08:48 50.04715 8.56412 368 ft 0 kts 340°
2026-05-05 08:48 50.04698 8.56422 368 ft 0 kts 339°
2026-05-05 08:48 50.04683 8.56439 369 ft 0 kts 302°
2026-05-05 08:49 50.04680 8.56466 371 ft 0 kts 263°
2026-05-05 08:49 50.04683 8.56484 369 ft 0 kts 246°
2026-05-05 08:53 50.04678 8.56467 368 ft 5 kts 246°
2026-05-05 08:54 50.04661 8.56402 370 ft 8 kts 248°
2026-05-05 08:54 50.04635 8.56298 366 ft 13 kts 249°
2026-05-05 08:54 50.04600 8.56155 368 ft 15 kts 250°
2026-05-05 08:54 50.04568 8.56020 368 ft 10 kts 247°
2026-05-05 08:55 50.04522 8.55956 371 ft 10 kts 200°
2026-05-05 08:55 50.04453 8.55922 369 ft 11 kts 196°
2026-05-05 08:55 50.04370 8.55915 368 ft 13 kts 166°
2026-05-05 08:55 50.04298 8.55955 369 ft 7 kts 160°
2026-05-05 08:56 50.04246 8.55941 369 ft 10 kts 231°
2026-05-05 08:56 50.04211 8.55818 365 ft 15 kts 249°
2026-05-05 08:56 50.04172 8.55655 364 ft 18 kts 249°
2026-05-05 08:56 50.04124 8.55457 366 ft 21 kts 249°
2026-05-05 08:57 50.04072 8.55238 365 ft 22 kts 249°
2026-05-05 08:57 50.04015 8.55000 365 ft 24 kts 249°
2026-05-05 08:57 50.03953 8.54740 363 ft 26 kts 249°
2026-05-05 08:57 50.03891 8.54483 361 ft 23 kts 249°
2026-05-05 08:58 50.03855 8.54358 361 ft 9 kts 227°
2026-05-05 08:58 50.03798 8.54341 361 ft 11 kts 166°
2026-05-05 08:58 50.03721 8.54381 359 ft 9 kts 163°
2026-05-05 08:58 50.03666 8.54335 357 ft 12 kts 241°
2026-05-05 08:59 50.03631 8.54202 352 ft 14 kts 249°
2026-05-05 08:59 50.03593 8.54044 355 ft 17 kts 249°
2026-05-05 08:59 50.03548 8.53855 357 ft 20 kts 249°
2026-05-05 08:59 50.03495 8.53634 352 ft 23 kts 249°
2026-05-05 09:00 50.03437 8.53390 355 ft 25 kts 250°
2026-05-05 09:00 50.03378 8.53144 350 ft 23 kts 249°
2026-05-05 09:00 50.03325 8.52924 351 ft 20 kts 250°
2026-05-05 09:00 50.03287 8.52762 350 ft 9 kts 250°
2026-05-05 09:01 50.03270 8.52670 346 ft 8 kts 265°
2026-05-05 09:01 50.03264 8.52617 344 ft 4 kts 231°
2026-05-05 09:01 50.03228 8.52597 349 ft 7 kts 185°
2026-05-05 09:01 50.03164 8.52595 349 ft 15 kts 180°
2026-05-05 09:02 50.02828 8.52599 347 ft 82 kts 179°
2026-05-05 09:02 50.02049 8.52607 350 ft 140 kts 179°
2026-05-05 09:02 50.00904 8.52618 388 ft 182 kts 179°
2026-05-05 09:02 49.99632 8.52645 962 ft 184 kts 179°
2026-05-05 09:03 49.98337 8.52680 1609 ft 188 kts 179°
2026-05-05 09:03 49.97037 8.52851 2280 ft 187 kts 161°
2026-05-05 09:03 49.95961 8.53980 2781 ft 194 kts 127°
2026-05-05 09:03 49.95258 8.55845 3213 ft 207 kts 117°
2026-05-05 09:04 49.94622 8.57920 3667 ft 218 kts 116°
2026-05-05 09:04 49.94050 8.60160 4129 ft 229 kts 103°
2026-05-05 09:04 49.93937 8.62731 4504 ft 249 kts 93°
2026-05-05 09:04 49.93888 8.65511 4909 ft 265 kts 93°
2026-05-05 09:05 49.93836 8.68453 5442 ft 276 kts 96°
2026-05-05 09:05 49.93285 8.71274 6223 ft 274 kts 124°
2026-05-05 09:05 49.92000 8.73388 7075 ft 268 kts 147°
2026-05-05 09:05 49.90389 8.74788 8021 ft 265 kts 156°
2026-05-05 09:06 49.88716 8.76097 8704 ft 276 kts 144°
2026-05-05 09:06 49.87432 8.78378 9370 ft 287 kts 124°
2026-05-05 09:06 49.86377 8.81022 10179 ft 290 kts 121°
2026-05-05 09:06 49.85374 8.83813 10726 ft 304 kts 120°
2026-05-05 09:07 49.84327 8.86774 11121 ft 321 kts 120°
2026-05-05 09:07 49.83215 8.89896 11489 ft 339 kts 121°
2026-05-05 09:07 49.82034 8.93177 11855 ft 358 kts 121°
2026-05-05 09:07 49.80785 8.96623 12195 ft 375 kts 121°
2026-05-05 09:08 49.79479 9.00214 12691 ft 387 kts 121°
2026-05-05 09:08 49.78149 9.03866 13445 ft 391 kts 121°
2026-05-05 09:08 49.76909 9.07648 14148 ft 396 kts 116°
2026-05-05 09:08 49.75892 9.11650 14854 ft 402 kts 111°
2026-05-05 09:09 49.74959 9.15736 15609 ft 403 kts 114°
2026-05-05 09:09 49.73748 9.19645 16333 ft 403 kts 123°
2026-05-05 09:09 49.72140 9.23200 17040 ft 403 kts 131°
2026-05-05 09:09 49.70330 9.26515 17789 ft 404 kts 133°
2026-05-05 09:10 49.68474 9.29794 18461 ft 407 kts 134°
2026-05-05 09:10 49.66589 9.33099 19049 ft 411 kts 134°
2026-05-05 09:10 49.64691 9.36433 19595 ft 416 kts 133°
2026-05-05 09:10 49.62929 9.40018 20129 ft 423 kts 126°
2026-05-05 09:11 49.61465 9.44000 20703 ft 429 kts 118°
2026-05-05 09:11 49.60336 9.48299 21235 ft 435 kts 111°
2026-05-05 09:11 49.59366 9.52757 21760 ft 441 kts 110°
2026-05-05 09:11 49.58410 9.57286 22260 ft 446 kts 110°
2026-05-05 09:12 49.57445 9.61854 22801 ft 450 kts 110°
2026-05-05 09:12 49.56462 9.66456 23311 ft 454 kts 110°
2026-05-05 09:12 49.55464 9.71103 23812 ft 457 kts 110°
2026-05-05 09:12 49.54455 9.75768 24285 ft 460 kts 111°
2026-05-05 09:13 49.53296 9.80296 24714 ft 461 kts 117°
2026-05-05 09:13 49.51768 9.84723 25215 ft 461 kts 124°
2026-05-05 09:13 49.49978 9.88734 25669 ft 461 kts 130°
2026-05-05 09:13 49.47973 9.92608 26123 ft 464 kts 132°
2026-05-05 09:14 49.45921 9.96470 26545 ft 467 kts 132°
2026-05-05 09:14 49.43851 10.00347 26985 ft 470 kts 132°
2026-05-05 09:14 49.41773 10.04250 27423 ft 473 kts 132°
2026-05-05 09:14 49.39683 10.08183 27865 ft 476 kts 132°
2026-05-05 09:15 49.37581 10.12145 28297 ft 479 kts 132°
2026-05-05 09:15 49.35473 10.16118 28832 ft 479 kts 132°
2026-05-05 09:15 49.33371 10.20073 29488 ft 477 kts 132°
2026-05-05 09:15 49.31268 10.24021 30056 ft 477 kts 133°
2026-05-05 09:16 49.29158 10.27970 30416 ft 480 kts 133°
2026-05-05 09:16 49.27034 10.31934 30751 ft 482 kts 133°
2026-05-05 09:16 49.24886 10.35899 30859 ft 483 kts 134°
2026-05-05 09:17 49.20258 10.43331 30866 ft 481 kts 139°
2026-05-05 09:17 49.15457 10.50459 30882 ft 481 kts 139°
2026-05-05 09:18 49.10652 10.57589 30883 ft 481 kts 139°
2026-05-05 09:18 49.05849 10.64693 30859 ft 481 kts 139°
2026-05-05 09:19 49.01032 10.71796 30868 ft 481 kts 139°
2026-05-05 09:19 48.96217 10.78866 30865 ft 481 kts 139°
2026-05-05 09:20 48.91397 10.85919 30864 ft 481 kts 139°
2026-05-05 09:20 48.86578 10.92978 30855 ft 480 kts 139°
2026-05-05 09:21 48.81760 11.00009 30838 ft 481 kts 139°
2026-05-05 09:21 48.76922 11.07048 30851 ft 482 kts 140°
2026-05-05 09:22 48.72068 11.14076 30857 ft 482 kts 140°
2026-05-05 09:22 48.67529 11.21609 30857 ft 487 kts 131°
2026-05-05 09:23 48.63861 11.30277 30851 ft 492 kts 121°
2026-05-05 09:23 48.61218 11.39792 30844 ft 497 kts 111°
2026-05-05 09:24 48.59109 11.49833 30854 ft 497 kts 110°
2026-05-05 09:24 48.57107 11.59770 30852 ft 498 kts 108°
2026-05-05 09:25 48.55536 11.69996 30854 ft 499 kts 105°
2026-05-05 09:25 48.54047 11.80248 30840 ft 500 kts 105°
2026-05-05 09:26 48.52544 11.90517 30845 ft 501 kts 105°
2026-05-05 09:26 48.51028 12.00781 30850 ft 501 kts 105°
2026-05-05 09:27 48.49501 12.11040 30848 ft 501 kts 105°
2026-05-05 09:27 48.47961 12.21298 30831 ft 501 kts 105°
2026-05-05 09:28 48.46411 12.31532 30837 ft 500 kts 105°
2026-05-05 09:28 48.44851 12.41768 30834 ft 500 kts 105°
2026-05-05 09:29 48.43281 12.51990 30831 ft 500 kts 105°
2026-05-05 09:29 48.41699 12.62216 30831 ft 500 kts 105°
2026-05-05 09:30 48.40091 12.72421 30834 ft 500 kts 107°
2026-05-05 09:30 48.38018 12.82394 30837 ft 498 kts 111°
2026-05-05 09:31 48.35740 12.92179 30836 ft 498 kts 111°
2026-05-05 09:31 48.33417 13.02098 30823 ft 500 kts 111°
2026-05-05 09:32 48.31119 13.11901 30834 ft 500 kts 111°
2026-05-05 09:32 48.28645 13.21678 30835 ft 499 kts 115°
2026-05-05 09:33 48.25893 13.31260 30839 ft 499 kts 116°
2026-05-05 09:33 48.23123 13.40819 30831 ft 499 kts 116°
2026-05-05 09:34 48.20343 13.50381 30835 ft 500 kts 116°
2026-05-05 09:34 48.17556 13.59941 30836 ft 500 kts 116°
2026-05-05 09:35 48.15218 13.67933 30835 ft 500 kts 116°
2026-05-05 09:35 48.11010 13.82235 30828 ft 500 kts 116°
2026-05-05 09:36 48.08217 13.91692 30837 ft 500 kts 116°
2026-05-05 09:36 48.05398 14.01203 30832 ft 500 kts 116°
2026-05-05 09:37 48.02568 14.10712 30835 ft 500 kts 116°
2026-05-05 09:37 47.99734 14.20186 30830 ft 499 kts 116°
2026-05-05 09:38 47.96882 14.29692 30947 ft 505 kts 116°
2026-05-05 09:38 47.95445 14.34475 31448 ft 503 kts 116°
2026-05-05 09:38 47.94017 14.39220 32082 ft 499 kts 116°
2026-05-05 09:39 47.92596 14.43930 32677 ft 496 kts 116°
2026-05-05 09:39 47.91180 14.48615 33221 ft 494 kts 116°
2026-05-05 09:39 47.89764 14.53286 33712 ft 494 kts 116°
2026-05-05 09:39 47.88344 14.57951 33834 ft 494 kts 116°
2026-05-05 09:40 47.85487 14.67322 34196 ft 497 kts 116°
2026-05-05 09:40 47.84061 14.71993 34715 ft 493 kts 116°
2026-05-05 09:40 47.82644 14.76626 35250 ft 489 kts 117°
2026-05-05 09:41 47.81232 14.81235 35687 ft 488 kts 117°
2026-05-05 09:41 47.79820 14.85830 36051 ft 488 kts 117°
2026-05-05 09:41 47.78405 14.90424 36399 ft 487 kts 117°
2026-05-05 09:41 47.76992 14.95002 36776 ft 486 kts 117°
2026-05-05 09:42 47.75581 14.99566 37140 ft 485 kts 117°
2026-05-05 09:42 47.74170 15.04128 37472 ft 485 kts 117°
2026-05-05 09:42 47.72759 15.08681 37781 ft 484 kts 117°
2026-05-05 09:42 47.71347 15.13228 38079 ft 484 kts 117°
2026-05-05 09:43 47.69935 15.17769 38369 ft 484 kts 117°
2026-05-05 09:43 47.68519 15.22310 38616 ft 484 kts 117°
2026-05-05 09:43 47.67103 15.26841 38823 ft 484 kts 117°
2026-05-05 09:43 47.65685 15.31380 38865 ft 485 kts 117°
2026-05-05 09:44 47.62827 15.40486 38873 ft 486 kts 117°
2026-05-05 09:44 47.59972 15.49570 38879 ft 486 kts 117°
2026-05-05 09:45 47.57097 15.58643 38887 ft 485 kts 117°
2026-05-05 09:45 47.54228 15.67706 38883 ft 486 kts 117°
2026-05-05 09:46 47.51342 15.76774 38887 ft 487 kts 118°
2026-05-05 09:46 47.48441 15.85854 38888 ft 488 kts 118°
2026-05-05 09:47 47.45536 15.94913 38887 ft 487 kts 117°
2026-05-05 09:47 47.42643 16.03909 38892 ft 487 kts 117°
2026-05-05 09:48 47.39726 16.12940 38895 ft 487 kts 118°
2026-05-05 09:48 47.36794 16.21979 38896 ft 487 kts 117°
2026-05-05 09:49 47.33865 16.30993 38898 ft 487 kts 118°
2026-05-05 09:49 47.30920 16.40006 38902 ft 486 kts 118°
2026-05-05 09:50 47.28066 16.49076 38913 ft 488 kts 114°
2026-05-05 09:50 47.25580 16.58401 38913 ft 488 kts 113°
2026-05-05 09:51 47.23110 16.67729 38910 ft 489 kts 113°
2026-05-05 09:51 47.20626 16.77042 38915 ft 488 kts 113°
2026-05-05 09:52 47.18134 16.86337 38913 ft 488 kts 113°
2026-05-05 09:52 47.15633 16.95634 38921 ft 488 kts 113°
2026-05-05 09:53 47.13127 17.04909 38924 ft 488 kts 113°
2026-05-05 09:53 47.10610 17.14193 38926 ft 488 kts 113°
2026-05-05 09:54 47.08090 17.23450 38936 ft 489 kts 114°
2026-05-05 09:54 47.05553 17.32711 38939 ft 488 kts 114°
2026-05-05 09:55 47.03014 17.41958 38938 ft 489 kts 114°
2026-05-05 09:55 47.00485 17.51139 38958 ft 488 kts 114°
2026-05-05 09:56 46.97935 17.60362 38956 ft 488 kts 114°
2026-05-05 09:56 46.95376 17.69585 38955 ft 489 kts 114°
2026-05-05 09:57 46.92805 17.78790 38964 ft 487 kts 114°
2026-05-05 09:57 46.90229 17.87991 38975 ft 488 kts 114°
2026-05-05 09:58 46.87640 17.97216 38979 ft 486 kts 114°
2026-05-05 09:58 46.85083 18.06300 38975 ft 486 kts 114°
2026-05-05 09:59 46.82499 18.15437 38977 ft 486 kts 114°
2026-05-05 09:59 46.79903 18.24570 38980 ft 486 kts 114°
2026-05-05 10:00 46.77303 18.33689 38980 ft 486 kts 114°
2026-05-05 10:00 46.74698 18.42795 38988 ft 486 kts 114°
2026-05-05 10:01 46.72082 18.51902 38992 ft 486 kts 114°
2026-05-05 10:01 46.69460 18.60987 38988 ft 486 kts 113°
2026-05-05 10:02 46.66832 18.70074 38991 ft 486 kts 114°
2026-05-05 10:02 46.64196 18.79153 38996 ft 486 kts 114°
2026-05-05 10:03 46.61551 18.88224 38993 ft 486 kts 114°
2026-05-05 10:03 46.58896 18.97285 39000 ft 487 kts 113°
2026-05-05 10:04 46.56236 19.06343 39000 ft 487 kts 113°
2026-05-05 10:04 46.53568 19.15398 39001 ft 487 kts 113°
2026-05-05 10:05 46.50894 19.24441 38995 ft 487 kts 114°
2026-05-05 10:05 46.48208 19.33472 39003 ft 486 kts 113°
2026-05-05 10:06 46.45521 19.42491 39005 ft 486 kts 113°
2026-05-05 10:06 46.42826 19.51506 39007 ft 486 kts 113°
2026-05-05 10:07 46.40125 19.60509 39007 ft 486 kts 113°
2026-05-05 10:07 46.37414 19.69493 39012 ft 486 kts 113°
2026-05-05 10:08 46.34721 19.78405 39012 ft 486 kts 113°
2026-05-05 10:08 46.32003 19.87365 39015 ft 486 kts 113°
2026-05-05 10:09 46.29278 19.96316 39016 ft 486 kts 113°
2026-05-05 10:09 46.26544 20.05261 39017 ft 486 kts 113°
2026-05-05 10:10 46.23801 20.14199 39018 ft 486 kts 114°
2026-05-05 10:10 46.21052 20.23127 39017 ft 486 kts 114°
2026-05-05 10:11 46.18296 20.32041 39022 ft 486 kts 114°
2026-05-05 10:11 46.15505 20.40934 39015 ft 486 kts 115°
2026-05-05 10:12 46.12485 20.49676 39014 ft 487 kts 116°
2026-05-05 10:12 46.09442 20.58406 39018 ft 487 kts 116°
2026-05-05 10:13 46.06393 20.67119 39024 ft 487 kts 116°
2026-05-05 10:13 46.03331 20.75838 39024 ft 487 kts 116°
2026-05-05 10:14 46.00268 20.84545 39024 ft 487 kts 116°
2026-05-05 10:14 45.97198 20.93241 39032 ft 487 kts 116°
2026-05-05 10:15 45.94122 21.01923 39037 ft 487 kts 116°
2026-05-05 10:15 45.91033 21.10613 39031 ft 488 kts 116°
2026-05-05 10:16 45.87938 21.19294 39047 ft 488 kts 116°
2026-05-05 10:16 45.84834 21.27970 39048 ft 488 kts 116°
2026-05-05 10:17 45.81725 21.36630 39043 ft 488 kts 116°
2026-05-05 10:17 45.78607 21.45289 39042 ft 488 kts 116°
2026-05-05 10:18 45.75503 21.53883 39053 ft 488 kts 116°
2026-05-05 10:18 45.72372 21.62526 39034 ft 488 kts 116°
2026-05-05 10:19 45.69235 21.71152 39023 ft 488 kts 116°
2026-05-05 10:19 45.66090 21.79776 39040 ft 489 kts 116°
2026-05-05 10:20 45.64514 21.84088 39027 ft 489 kts 116°